Lewistown, MT

2:04 AM MDT on August 25, 2016 (GMT -0600)
Lewistown Municipal

Weather History for KLWT - September, 2013

Change the Weather History Date:

Tuesday, September 10, 2013

  Actual Average Record
Temperature  
Mean Temperature 63 °F 57 °F  
Max Temperature 79 °F 71 °F 91 °F (1966)
Min Temperature 46 °F 43 °F 16 °F (1896)
Degree Days  
Heating Degree Days 2 9  
Month to date heating degree days 10 72  
Since 1 July heating degree days 49 230  
Cooling Degree Days 0 1  
Month to date cooling degree days 43 10  
Year to date cooling degree days 273 206  
Growing Degree Days 12 (Base 50)    
Moisture  
Dew Point 46 °F    
Average Humidity 61    
Maximum Humidity 93    
Minimum Humidity 28    
Precipitation  
Precipitation 0.00 in 0.05 in 1.00 in (1903)
Month to date precipitation 0.31 0.48  
Year to date precipitation 18.37 13.48  
Snow  
Snow 0.00 in - - ()
Snow Depth 0.00 in    
Sea Level Pressure  
Sea Level Pressure 30.05 in    
Wind  
Wind Speed 5 mph (SE)    
Max Wind Speed 14 mph    
Max Gust Speed 30 mph    
Visibility 10 miles    
Events      
T = Trace of Precipitation, MM = Missing Value Source: NWS Daily Summary

Daily Weather History Graph

Daily Weather History Graph

Search for Another Location

Airport or City:

Trip Planner

Search our weather history database for the weather conditions in past years. The results will help you decide how hot, cold, wet, or windy it might be!

Date:

Astronomy

Sep. 10, 2013 Rise Set
Actual Time 6:49 AM MDT 7:39 PM MDT
Civil Twilight 6:18 AM MDT 8:09 PM MDT
Nautical Twilight 5:41 AM MDT 8:46 PM MDT
Astronomical Twilight 5:02 AM MDT 9:25 PM MDT
Moon 12:41 PM MDT (9/10) 10:21 PM MDT (9/10)
Length of Visible Light 13h 51m
Length of Day
12h 49m
Waxing Crescent, 29% of the Moon is Illuminated
Sep 10
Waxing Crescent
Sep 12
First Quarter
Sep 19
Full
Sep 26
Last Quarter
Oct 4
New

Hourly Weather History & Observations

Time (MDT) Temp. Windchill Dew Point Humidity Pressure Visibility Wind Dir Wind Speed Gust Speed Precip Events Conditions
12:54 AM 50.0 °F - 46.9 °F 89% 30.05 in 10.0 mi SE 4.6 mph - N/A   Clear
1:54 AM 48.9 °F - 46.9 °F 93% 30.04 in 10.0 mi SE 4.6 mph - N/A   Clear
2:54 AM 48.0 °F - 46.0 °F 93% 30.04 in 10.0 mi SE 5.8 mph - N/A   Clear
3:54 AM 48.0 °F - 46.0 °F 93% 30.04 in 10.0 mi SE 6.9 mph - N/A   Clear
4:54 AM 46.0 °F 43.1 °F 45.0 °F 96% 30.06 in 10.0 mi SE 5.8 mph - N/A   Clear
5:54 AM 46.0 °F 42.5 °F 44.1 °F 93% 30.05 in 10.0 mi SE 6.9 mph - N/A   Clear
6:54 AM 46.9 °F - 45.0 °F 93% 30.07 in 10.0 mi SE 6.9 mph - N/A   Clear
7:54 AM 51.1 °F - 46.9 °F 86% 30.09 in 10.0 mi SE 5.8 mph - N/A   Clear
8:54 AM 57.0 °F - 48.9 °F 74% 30.09 in 10.0 mi SE 3.5 mph - N/A   Clear
9:54 AM 66.0 °F - 48.9 °F 54% 30.08 in 10.0 mi Calm Calm - N/A   Clear
10:54 AM 71.1 °F - 48.9 °F 45% 30.05 in 10.0 mi Variable 4.6 mph - N/A   Clear
11:54 AM 73.9 °F - 46.0 °F 37% 30.05 in 10.0 mi West 4.6 mph - N/A   Clear
12:54 PM 77.0 °F - 43.0 °F 30% 30.04 in 10.0 mi WSW 9.2 mph - N/A   Partly Cloudy
1:54 PM 75.9 °F - 42.1 °F 30% 30.04 in 10.0 mi WSW 6.9 mph - N/A   Scattered Clouds
2:54 PM 75.9 °F - 45.0 °F 33% 30.03 in 10.0 mi NNW 8.1 mph - N/A   Mostly Cloudy
3:54 PM 78.1 °F - 44.1 °F 30% 30.02 in 10.0 mi NNW 9.2 mph - N/A   Clear
4:54 PM 78.1 °F - 43.0 °F 29% 30.02 in 10.0 mi NW 5.8 mph - N/A   Clear
5:54 PM 77.0 °F - 45.0 °F 32% 30.02 in 10.0 mi North 8.1 mph - N/A   Clear
6:54 PM 73.0 °F - 48.9 °F 42% 30.04 in 10.0 mi NNE 3.5 mph - N/A   Clear
7:54 PM 66.0 °F - 48.9 °F 54% 30.06 in 10.0 mi North 3.5 mph - N/A   Clear
8:54 PM 62.1 °F - 48.0 °F 60% 30.08 in 10.0 mi Calm Calm - N/A   Clear
9:54 PM 57.9 °F - 46.9 °F 67% 30.08 in 10.0 mi South 5.8 mph - N/A   Clear
10:54 PM 54.0 °F - 46.9 °F 77% 30.09 in 10.0 mi SSE 5.8 mph - N/A   Clear
11:54 PM 55.0 °F - 46.0 °F 72% 30.09 in 10.0 mi ESE 4.6 mph - N/A   Clear